When you browse on this site, cookies collect data to enhance your experience and personalize the content and advertising you see.
Visit our Privacy Policy to learn more. By continuing to use the site, you agree to this use of cookies and data.
  • In Hungary
  • List of Countries
  • For 7 days
  • Water Temperature
  • Satellite Maps
  • Weather Map
  • News
  • Weather Widgets
  • user-avatar
    Login

    Hourly Weather Oita

    Today, 16 November, Friday

    Time Temperature Precipitation Wind Pressure Humidity
    00:00 +10°C° 0 mm 1 mps 761 mmHg 76%
    01:00 +10°C° 0 mm 1 mps 761 mmHg 75%
    02:00 +10°C° 0 mm 1 mps 761 mmHg 75%
    03:00 +10°C° 0 mm 1 mps 761 mmHg 74%
    04:00 +10°C° 0 mm 1 mps 761 mmHg 73%
    05:00 +10°C° 0 mm 1 mps 761 mmHg 72%
    06:00 +9°C° 0 mm 2 mps 761 mmHg 72%
    07:00 +12°C° 0 mm 1 mps 761 mmHg 67%
    08:00 +13°C° 0 mm 1 mps 761 mmHg 62%
    09:00 +15°C° 0 mm 1 mps 760 mmHg 58%
    10:00 +16°C° 0 mm 1 mps 760 mmHg 56%
    11:00 +18°C° 0 mm 1 mps 760 mmHg 54%
    12:00 +19°C° 0 mm 1 mps 759 mmHg 52%
    13:00 +18°C° 0.1 mm 1 mps 759 mmHg 57%
    14:00 +18°C° 0.1 mm 1 mps 759 mmHg 63%
    15:00 +15°C° 0 mm 0 mps 758 mmHg 66%
    16:00 +15°C° 0.6 mm 1 mps 758 mmHg 73%
    17:00 +14°C° 0.6 mm 1 mps 758 mmHg 81%
    18:00 +13°C° 0.6 mm 1 mps 759 mmHg 88%
    19:00 +13°C° 1.5 mm 1 mps 758 mmHg 89%
    20:00 +13°C° 1.5 mm 1 mps 758 mmHg 91%
    21:00 +13°C° 0 mm 2 mps 758 mmHg 92%
    22:00 +13°C° 0.8 mm 1 mps 758 mmHg 92%
    23:00 +13°C° 0.8 mm 1 mps 758 mmHg 92%

    Tomorrow, 17 November, Saturday

    Time Temperature Precipitation Wind Pressure Humidity
    00:00 +13°C° 0.8 mm 1 mps 758 mmHg 92%
    01:00 +13°C° 0.2 mm 1 mps 757 mmHg 92%
    02:00 +13°C° 0.2 mm 1 mps 757 mmHg 92%
    03:00 +13°C° 0.2 mm 2 mps 757 mmHg 92%
    04:00 +12°C° 0 mm 2 mps 757 mmHg 92%
    05:00 +12°C° 0 mm 2 mps 758 mmHg 92%
    06:00 +11°C° 0 mm 3 mps 758 mmHg 92%
    07:00 +12°C° 0 mm 3 mps 758 mmHg 89%
    08:00 +13°C° 0 mm 3 mps 758 mmHg 85%
    09:00 +14°C° 0 mm 3 mps 758 mmHg 82%
    10:00 +16°C° 0 mm 3 mps 757 mmHg 76%
    11:00 +17°C° 0 mm 3 mps 757 mmHg 69%
    12:00 +19°C° 0 mm 3 mps 757 mmHg 63%
    13:00 +19°C° 0 mm 3 mps 757 mmHg 61%
    14:00 +19°C° 0 mm 3 mps 757 mmHg 60%
    15:00 +19°C° 0 mm 3 mps 757 mmHg 58%
    16:00 +17°C° 0 mm 3 mps 757 mmHg 65%
    17:00 +14°C° 0 mm 3 mps 757 mmHg 71%
    18:00 +14°C° 0 mm 2 mps 757 mmHg 77%
    19:00 +13°C° 0 mm 2 mps 758 mmHg 79%
    20:00 +13°C° 0 mm 2 mps 758 mmHg 82%
    21:00 +12°C° 0 mm 2 mps 758 mmHg 84%
    22:00 +11°C° 0 mm 3 mps 758 mmHg 84%
    23:00 +11°C° 0 mm 3 mps 758 mmHg 85%

    Day after tomorrow, 18 November, Sunday

    Time Temperature Precipitation Wind Pressure Humidity
    00:00 +10°C° 0 mm 3 mps 758 mmHg 85%
    01:00 +10°C° 0 mm 3 mps 758 mmHg 85%
    02:00 +10°C° 0 mm 3 mps 758 mmHg 86%
    03:00 +10°C° 0 mm 2 mps 758 mmHg 86%
    04:00 +10°C° 0 mm 2 mps 758 mmHg 85%
    05:00 +10°C° 0 mm 2 mps 758 mmHg 84%
    06:00 +10°C° 0 mm 2 mps 758 mmHg 84%
    07:00 +12°C° 0 mm 2 mps 759 mmHg 78%
    08:00 +14°C° 0 mm 2 mps 759 mmHg 72%
    09:00 +16°C° 0 mm 2 mps 759 mmHg 66%
    10:00 +17°C° 0 mm 2 mps 759 mmHg 60%
    11:00 +19°C° 0 mm 2 mps 758 mmHg 53%
    12:00 +20°C° 0 mm 2 mps 758 mmHg 47%
    13:00 +20°C° 0 mm 2 mps 758 mmHg 47%
    14:00 +20°C° 0 mm 2 mps 757 mmHg 47%
    15:00 +19°C° 0 mm 2 mps 757 mmHg 47%
    16:00 +17°C° 0 mm 2 mps 757 mmHg 55%
    17:00 +15°C° 0 mm 1 mps 757 mmHg 62%
    18:00 +14°C° 0 mm 1 mps 757 mmHg 70%
    19:00 +13°C° 0 mm 1 mps 758 mmHg 71%
    20:00 +13°C° 0 mm 1 mps 758 mmHg 72%
    21:00 +13°C° 0 mm 1 mps 758 mmHg 73%
    22:00 +13°C° 0 mm 2 mps 758 mmHg 72%
    23:00 +13°C° 0 mm 2 mps 758 mmHg 71%

    19 November, Monday

    Time Temperature Precipitation Wind Pressure Humidity
    00:00 +13°C° 0 mm 2 mps 758 mmHg 70%
    01:00 +13°C° 0.2 mm 2 mps 758 mmHg 73%
    02:00 +12°C° 0.2 mm 2 mps 758 mmHg 77%
    03:00 +12°C° 0.2 mm 2 mps 758 mmHg 80%
    04:00 +12°C° 0.1 mm 2 mps 758 mmHg 81%
    05:00 +12°C° 0.1 mm 2 mps 758 mmHg 82%
    06:00 +12°C° 0.1 mm 2 mps 758 mmHg 82%
    07:00 +11°C° 0 mm 3 mps 758 mmHg 80%
    08:00 +12°C° 0 mm 3 mps 759 mmHg 78%
    09:00 +13°C° 0 mm 3 mps 759 mmHg 76%
    10:00 +14°C° 0 mm 3 mps 759 mmHg 71%
    11:00 +15°C° 0 mm 4 mps 759 mmHg 66%
    12:00 +17°C° 0 mm 4 mps 759 mmHg 61%
    13:00 +17°C° 0 mm 4 mps 758 mmHg 60%
    14:00 +16°C° 0 mm 5 mps 758 mmHg 59%
    15:00 +16°C° 0 mm 5 mps 758 mmHg 58%
    16:00 +14°C° 0 mm 5 mps 758 mmHg 62%
    17:00 +13°C° 0 mm 5 mps 759 mmHg 67%
    18:00 +11°C° 0 mm 4 mps 759 mmHg 71%
    19:00 +10°C° 0 mm 4 mps 759 mmHg 72%
    20:00 +10°C° 0 mm 4 mps 760 mmHg 74%
    21:00 +8°C° 0 mm 4 mps 760 mmHg 76%
    22:00 +8°C° 0 mm 4 mps 760 mmHg 76%
    23:00 +9°C° 0 mm 3 mps 760 mmHg 77%

    20 November, Tuesday

    Time Temperature Precipitation Wind Pressure Humidity
    00:00 +8°C° 0 mm 3 mps 760 mmHg 77%
    01:00 +8°C° 0 mm 3 mps 760 mmHg 77%
    02:00 +8°C° 0 mm 3 mps 760 mmHg 77%
    03:00 +7°C° 0 mm 4 mps 760 mmHg 77%
    04:00 +8°C° 0 mm 3 mps 760 mmHg 77%
    05:00 +8°C° 0 mm 3 mps 760 mmHg 77%
    06:00 +8°C° 0 mm 3 mps 761 mmHg 77%
    07:00 +10°C° 0 mm 3 mps 761 mmHg 72%
    08:00 +11°C° 0 mm 3 mps 761 mmHg 66%
    09:00 +13°C° 0 mm 3 mps 762 mmHg 61%
    10:00 +13°C° 0 mm 3 mps 761 mmHg 59%
    11:00 +14°C° 0 mm 3 mps 761 mmHg 57%
    12:00 +16°C° 0 mm 3 mps 761 mmHg 55%
    13:00 +16°C° 0 mm 3 mps 761 mmHg 55%
    14:00 +16°C° 0 mm 3 mps 761 mmHg 54%
    15:00 +16°C° 0 mm 3 mps 761 mmHg 53%
    16:00 +14°C° 0 mm 3 mps 761 mmHg 58%
    17:00 +12°C° 0 mm 3 mps 761 mmHg 63%
    18:00 +10°C° 0 mm 2 mps 761 mmHg 68%
    19:00 +10°C° 0 mm 2 mps 761 mmHg 69%
    20:00 +9°C° 0 mm 2 mps 762 mmHg 70%
    21:00 +9°C° 0 mm 2 mps 762 mmHg 71%
    22:00 +9°C° 0 mm 2 mps 762 mmHg 72%
    23:00 +8°C° 0 mm 2 mps 762 mmHg 72%

    21 November, Wednesday

    Time Temperature Precipitation Wind Pressure Humidity
    00:00 +8°C° 0 mm 2 mps 762 mmHg 73%
    01:00 +8°C° 0 mm 2 mps 762 mmHg 71%
    02:00 +8°C° 0 mm 2 mps 761 mmHg 70%
    03:00 +8°C° 0 mm 2 mps 761 mmHg 68%
    04:00 +7°C° 0 mm 2 mps 761 mmHg 66%
    05:00 +7°C° 0 mm 2 mps 761 mmHg 64%
    06:00 +7°C° 0 mm 2 mps 761 mmHg 62%
    07:00 +9°C° 0 mm 2 mps 761 mmHg 58%
    08:00 +12°C° 0 mm 2 mps 761 mmHg 53%
    09:00 +14°C° 0 mm 1 mps 761 mmHg 49%
    10:00 +15°C° 0 mm 1 mps 761 mmHg 46%
    11:00 +18°C° 0 mm 1 mps 761 mmHg 42%
    12:00 +19°C° 0 mm 1 mps 760 mmHg 39%
    13:00 +18°C° 0 mm 2 mps 760 mmHg 39%
    14:00 +18°C° 0 mm 2 mps 759 mmHg 40%
    15:00 +17°C° 0 mm 2 mps 759 mmHg 40%
    16:00 +16°C° 0 mm 3 mps 759 mmHg 45%
    17:00 +13°C° 0 mm 3 mps 759 mmHg 50%
    18:00 +12°C° 0 mm 4 mps 760 mmHg 55%
    19:00 +11°C° 0 mm 4 mps 760 mmHg 57%
    20:00 +10°C° 0 mm 4 mps 760 mmHg 59%
    21:00 +10°C° 0 mm 4 mps 761 mmHg 62%
    22:00 +8°C° 0 mm 4 mps 761 mmHg 63%
    23:00 +8°C° 0 mm 4 mps 760 mmHg 64%
    Show more